Temp
24 24 24 24 24 24 24 24 23 23 23 24 24 23 23 24 23 22 23 24 24 24 24 25 25 25 26 25 26 27 27 27 25 24 24 23 23 23 22 22 22 22 22 21 21 21 21 21 21 21 21 21 21 20 20 20 20 21 21 21 21 21 21 21 21 20 20 20 20 20 20 20 20 21 21 21 21 20 20 20 20 20 20 20 20
24 24 25 24 24 24 24 24 24 23 23 23 24 24 24 24 23 23 24 24 24 24 24 25 25 25 26 26 26 27 28 28 26 24 24 23 23 23 22 22 22 22 22 22 21 21 21 21 21 21 21 21 21 21 21 20 20 20 20 21 21 21 20 21 21 20 20 20 20 20 20 20 20 20 20 21 20 20 20 20 20 20 20 20 20
24 24 24 24 24 24 24 24 24 23 24 24 23 24 23 23 23 24 25 25 24 25 25 25 25 26 26 26 26 27 28 28 26 24 23 23 23 23 23 22 22 22 22 21 21 21 21 21 21 21 21 21 21 21 21 21 21 20 20 20 20 20 20 20 21 20 20 20 20 20 20 20 20 20 20 20 20 20 20 20 20 20 20 20 20
25 24 24 24 24 24 24 24 24 24 24 24 24 24 24 24 24 25 25 25 25 25 25 25 25 26 26 26 27 27 28 28 26 24 24 23 23 23 23 22 22 21 21 21 21 21 21 21 21 21 21 21 21 21 21 21 21 20 20 20 20 20 20 20 20 20 20 20 20 20 20 20 20 20 20 20 20 20 20 20 20 20 20 20 20
24 24 24 24 24 24 24 24 24 24 24 24 24 24 24 24 25 25 25 25 25 25 25 25 26 26 26 26 27 27 27 28 27 25 24 23 23 23 23 22 22 22 21 21 21 21 21 21 21 21 21 21 21 21 21 21 20 20 20 20 20 20 20 20 20 20 20 20 20 20 20 20 20 20 20 20 20 20 20 20 20 20 20 20 20
24 24 24 24 24 24 24 24 24 24 24 24 24 24 25 25 25 25 25 25 25 25 25 25 25 26 26 26 27 27 27 28 27 26 25 24 23 23 23 23 22 22 22 21 21 21 21 21 21 21 21 21 21 21 21 21 20 20 20 20 20 20 20 20 20 20 20 20 20 20 20 20 20 20 20 20 20 20 20 20 20 20 20 20 20
24 24 24 24 24 24 24 24 24 24 24 24 24 25 24 24 25 25 25 25 25 25 25 25 25 25 26 26 27 27 28 28 26 26 25 24 24 23 23 23 22 22 22 22 22 22 21 21 21 21 21 21 21 20 20 20 21 20 20 20 20 20 20 20 20 20 20 20 20 20 20 20 20 20 20 20 20 20 20 20 20 20 20 20 20
24 24 24 24 24 24 24 24 24 24 24 25 24 24 24 24 25 25 25 25 25 25 25 25 25 25 26 26 27 27 27 27 26 25 25 25 24 24 23 23 22 22 22 22 22 22 22 21 21 21 21 21 21 21 21 21 21 21 20 20 20 20 20 20 20 20 20 20 20 20 20 20 20 20 20 20 20 20 20 20 20 20 20 20 20
24 24 24 24 24 24 24 24 24 24 24 24 24 24 25 24 24 24 24 24 25 26 26 26 26 26 26 27 27 27 27 26 25 25 25 24 24 23 23 23 23 22 22 22 22 22 22 22 22 22 22 21 21 21 21 21 21 21 20 20 20 20 20 20 20 20 20 20 20 20 20 20 20 20 20 20 20 20 20 20 20 20 20 20 20
24 24 24 24 24 24 24 24 24 24 24 24 24 24 24 24 24 24 24 24 25 26 26 26 26 27 27 27 27 27 26 26 25 25 25 25 24 23 23 23 23 23 23 22 22 22 22 22 22 21 21 21 21 21 21 21 21 20 20 20 20 20 20 20 20 20 20 20 20 20 20 20 20 20 20 20 20 20 20 20 20 20 20 20 20
24 24 24 24 24 24 24 24 24 24 24 24 24 24 24 24 24 24 24 24 25 25 26 26 27 27 26 26 26 26 26 26 25 25 25 25 25 24 24 24 24 23 23 23 22 22 22 22 22 22 21 21 21 21 21 20 20 20 20 20 20 20 20 20 20 20 20 20 20 20 20 20 20 20 20 20 20 20 20 20 20 20 20 20 20
24 24 24 24 24 24 24 24 24 24 24 24 24 24 24 24 24 24 24 24 25 25 26 26 26 26 26 26 26 26 26 26 25 25 25 25 25 25 25 25 25 24 24 23 23 22 22 22 22 21 21 21 21 21 21 21 20 20 20 20 20 20 20 20 20 20 20 20 20 20 20 20 20 20 20 20 20 20 20 20 20 20 20 19 19
24 24 24 24 24 24 24 24 24 24 24 24 25 24 24 24 24 24 24 24 25 25 26 26 26 25 26 26 26 26 26 25 26 26 25 25 25 25 26 26 25 25 24 24 23 22 22 22 21 21 21 21 21 21 21 21 21 20 20 20 20 20 20 20 20 20 20 20 20 20 20 20 20 20 20 20 20 20 20 20 20 19 19 19 19
24 24 24 24 24 24 24 24 24 24 24 24 24 24 24 24 24 24 24 24 25 25 26 26 26 26 26 25 26 26 26 26 26 26 25 25 25 26 26 26 25 25 24 24 24 23 23 22 22 22 22 21 21 21 21 21 21 21 21 20 20 20 20 20 20 20 20 20 20 20 20 20 20 20 20 20 20 20 20 19 19 19 19 19 19
24 24 24 24 24 24 24 24 24 24 24 24 24 24 24 24 24 24 24 25 25 26 26 26 26 26 26 25 25 25 25 26 26 26 26 26 26 26 26 26 25 25 25 24 24 24 23 23 22 22 22 22 21 21 21 21 21 21 21 21 20 20 20 20 20 20 20 20 20 20 20 20 20 20 19 19 19 20 20 20 20 20 20 20 20
24 24 24 24 24 24 24 24 24 24 24 24 24 24 24 24 24 24 25 25 25 26 26 26 26 26 26 25 26 26 25 25 26 26 26 26 26 26 26 26 26 25 25 25 24 24 23 23 22 22 22 22 22 21 21 22 22 21 21 21 21 20 20 20 19 19 19 19 20 20 20 20 20 20 20 20 20 20 20 20 21 21 21 21 21
25 24 24 24 24 25 25 24 24 24 24 24 24 25 24 24 24 24 25 25 25 26 26 26 26 26 25 25 25 26 25 26 26 26 26 26 26 26 26 26 25 25 25 25 24 24 23 23 22 23 22 22 22 22 21 22 22 22 22 21 21 21 20 20 19 20 20 20 20 20 20 20 20 20 21 21 21 21 21 21 21 21 21 21 21
25 25 25 25 24 24 25 25 24 24 25 25 25 25 24 24 24 25 25 25 25 26 26 26 26 26 25 25 25 26 26 26 26 25 26 26 26 26 25 25 25 25 25 24 24 24 23 23 23 23 23 22 22 22 21 21 21 22 22 22 22 21 21 20 20 21 21 21 21 21 21 21 21 21 21 21 21 21 21 21 21 21 21 21 21
25 25 25 25 25 25 25 25 24 24 25 25 25 25 24 25 25 25 25 25 25 26 26 26 26 26 25 26 26 26 26 27 26 25 25 25 26 26 26 26 25 25 25 25 25 24 24 23 23 23 23 22 22 22 22 21 21 21 22 22 22 22 21 21 21 21 21 21 21 21 21 21 21 21 21 20 20 20 20 20 21 21 21 20 20
25 25 25 25 25 25 25 25 25 25 25 25 25 25 25 25 25 25 25 25 25 25 26 26 26 25 26 26 26 26 26 26 26 26 25 25 25 26 26 26 26 25 25 25 25 25 24 24 24 23 23 23 22 22 22 22 21 22 22 22 22 22 22 21 21 21 21 21 21 21 21 20 20 20 20 20 20 20 20 20 20 20 20 20 20
25 26 26 25 25 25 25 25 25 25 25 25 25 25 25 25 25 25 25 25 25 25 25 26 26 26 26 26 26 26 26 26 26 26 26 25 25 25 26 26 26 26 26 26 26 25 24 24 24 23 23 23 23 23 22 22 22 22 22 22 22 21 21 21 21 21 21 21 21 20 20 20 20 20 20 20 20 20 20 20 20 20 20 20 20
25 26 26 26 25 25 25 25 25 25 25 25 25 25 25 25 25 25 25 25 24 24 25 25 26 26 26 26 26 26 26 26 26 26 26 26 25 26 26 26 26 26 26 26 26 25 25 24 24 24 23 23 23 23 23 22 22 21 22 22 22 21 21 21 21 21 21 21 21 21 20 20 20 20 20 20 20 20 20 20 20 20 20 20 19
26 26 26 26 26 25 25 25 25 25 25 25 25 25 25 25 25 25 25 25 24 24 25 25 26 26 26 26 25 25 26 26 26 26 26 26 25 26 27 26 26 26 26 26 26 25 25 24 24 24 24 23 23 23 23 22 22 22 22 22 22 21 21 21 21 21 21 21 21 21 21 21 21 21 20 20 20 20 20 20 20 20 20 19 19
26 26 26 26 26 25 25 25 25 25 25 25 26 26 26 25 25 25 25 25 24 24 24 25 25 26 26 25 25 25 25 26 26 26 26 26 26 26 26 26 26 26 26 26 25 25 25 25 25 25 24 24 24 23 23 23 22 22 22 22 22 22 21 21 21 21 21 21 21 21 21 21 21 21 21 21 21 21 21 20 20 20 20 20 20
27 26 26 26 26 26 25 25 25 25 25 25 25 26 26 25 25 25 25 24 24 24 24 25 25 26 26 25 25 25 26 26 26 27 27 26 26 25 26 26 26 26 25 25 25 25 25 25 25 25 24 24 24 24 23 23 22 22 22 22 22 22 22 21 21 21 21 21 21 21 21 21 21 21 21 21 21 21 21 21 20 20 20 20 20
27 27 26 26 26 26 26 25 26 26 26 25 25 26 26 26 25 25 25 24 24 24 24 25 25 25 26 26 26 26 26 27 27 27 27 26 26 25 26 26 27 26 25 25 25 25 25 26 26 25 25 25 24 24 24 23 23 23 22 22 22 22 22 22 22 22 21 22 22 22 22 22 21 21 21 21 21 21 21 21 21 20 20 20 20
27 27 27 27 27 26 26 26 26 26 26 26 25 25 25 25 25 25 25 25 24 24 24 24 25 25 25 25 26 26 27 27 27 27 27 27 26 26 26 26 26 25 25 25 25 25 25 26 26 25 25 25 24 24 24 23 23 23 23 22 22 22 22 22 22 22 22 22 22 22 22 22 22 22 21 21 21 21 21 21 21 21 20 20 20
27 27 27 27 27 27 26 26 26 26 26 26 25 25 25 25 25 25 25 25 25 24 24 24 25 25 25 25 25 26 27 27 27 27 27 27 26 26 26 26 25 25 25 25 25 25 25 26 26 25 25 24 24 24 23 23 23 23 23 23 22 22 22 22 22 22 22 22 22 22 22 22 22 22 22 22 22 21 21 21 21 20 20 20 20
27 27 27 27 27 27 27 26 26 26 26 26 25 25 25 25 25 25 25 25 25 24 24 24 25 26 25 25 25 26 26 27 27 27 27 27 27 27 26 26 25 25 25 24 24 25 25 26 26 25 25 25 24 24 23 23 23 23 23 23 22 22 22 22 22 21 22 22 22 22 22 22 22 22 22 22 22 21 21 21 21 20 20 20 20
28 27 27 27 27 27 27 26 26 26 26 26 25 25 25 25 25 25 25 25 25 25 24 25 25 26 26 25 25 25 25 26 27 27 27 27 27 26 26 26 26 25 25 24 24 25 26 26 26 25 24 24 24 23 23 23 23 23 23 23 22 22 22 22 22 22 22 22 22 22 22 22 22 22 22 22 22 21 21 21 21 20 20 20 20
27 28 28 27 27 27 27 27 26 26 26 26 25 25 25 25 25 25 25 25 25 25 25 25 25 25 26 26 25 25 25 25 26 26 26 26 26 26 25 26 25 25 25 25 24 25 26 26 26 25 24 24 23 23 23 23 23 23 23 22 22 22 22 22 22 22 22 22 22 22 22 22 22 22 22 22 22 21 21 21 20 20 20 20 20
27 28 28 28 27 27 27 27 27 26 26 26 26 25 25 25 25 25 25 25 25 25 25 25 25 25 26 26 25 25 25 25 25 26 26 26 26 25 25 25 25 25 25 25 24 24 25 26 25 25 24 24 24 23 23 23 23 23 22 22 22 22 22 22 22 22 22 22 22 22 22 22 22 22 22 22 21 21 21 21 20 20 20 20 20
27 27 28 28 28 27 27 27 27 26 26 26 26 26 25 25 25 25 25 25 25 25 25 25 25 25 25 25 25 25 25 25 25 25 25 25 25 25 25 25 25 25 25 25 24 24 25 25 25 25 24 24 24 23 23 23 23 22 22 22 22 22 22 22 22 22 22 22 22 22 22 22 22 22 21 21 21 21 21 21 20 20 20 20 19
28 27 28 28 28 27 27 27 27 27 26 26 26 26 26 25 25 25 25 25 25 25 25 25 25 25 25 25 25 25 25 25 25 25 25 25 25 25 25 25 25 25 24 24 24 24 24 25 25 25 25 24 24 24 23 23 23 22 22 22 22 22 21 21 22 22 22 22 22 22 22 22 22 21 21 21 21 21 21 21 20 20 20 19 19
28 28 28 28 28 28 27 27 27 27 27 27 26 26 26 25 25 25 25 26 25 25 25 25 25 25 25 25 25 25 25 25 25 25 25 25 25 25 24 25 25 25 24 24 24 24 24 24 25 25 25 24 24 24 23 23 23 23 22 22 22 22 21 21 21 22 22 22 22 22 22 22 21 21 21 21 21 21 21 20 20 20 19 19 19
28 28 28 28 28 28 27 27 27 27 27 27 27 27 26 26 25 25 26 26 26 25 25 25 25 25 25 25 25 25 25 25 25 24 24 25 25 25 24 25 25 25 24 24 24 24 24 24 24 24 24 24 24 24 23 23 23 23 22 22 22 22 22 21 21 22 22 22 22 22 21 21 21 21 21 21 21 20 20 20 19 19 19 19 18
28 28 28 28 28 27 27 27 27 27 27 27 27 27 26 26 26 26 26 26 26 26 25 25 25 25 25 25 25 25 25 25 24 24 24 25 25 25 25 25 25 25 24 24 24 24 24 24 24 24 24 24 24 24 23 23 23 23 22 22 22 22 22 21 21 22 22 22 22 22 21 21 21 21 21 21 20 20 20 19 19 19 18 18 18
28 28 28 28 28 27 27 27 27 27 27 27 27 27 27 26 26 26 26 26 26 26 26 25 25 25 25 25 25 25 25 25 24 24 24 24 25 25 25 25 25 24 24 24 24 24 24 24 24 24 24 24 24 23 23 23 22 22 22 22 22 22 22 21 21 21 22 22 22 22 21 21 21 21 21 20 20 20 20 19 19 19 18 18 18
28 28 28 28 28 28 27 27 27 27 27 27 27 27 27 27 26 26 26 26 26 26 26 26 25 25 25 25 25 25 25 25 25 24 24 24 25 25 25 25 25 24 24 24 24 24 23 23 23 23 24 24 24 23 23 23 23 22 22 22 22 21 21 21 21 21 21 21 21 21 21 21 21 21 21 20 20 20 20 19 19 19 18 18 17
28 29 29 28 28 28 27 27 27 27 27 27 27 27 27 27 27 26 26 26 26 26 26 26 26 26 26 26 26 25 25 25 25 25 24 24 24 25 25 25 24 24 24 24 24 23 23 23 23 23 23 24 24 23 23 23 22 22 22 22 22 21 21 21 21 21 21 21 21 21 21 21 21 21 21 21 20 20 19 19 19 19 18 18 17
29 29 29 29 28 28 28 27 27 27 27 27 27 27 27 27 27 27 26 26 26 26 26 26 26 26 26 26 26 26 25 25 25 25 25 24 24 25 25 24 24 24 24 24 24 23 23 23 23 23 23 23 23 23 23 23 22 22 22 22 22 22 22 21 21 21 21 21 21 21 21 21 21 21 21 20 20 20 20 19 19 19 18 18 17
29 29 29 29 29 28 28 28 27 27 27 27 27 27 27 27 27 27 27 27 26 26 26 26 26 26 26 26 26 26 26 25 25 25 25 25 25 25 25 25 24 24 24 24 23 23 23 23 23 23 23 23 23 23 23 23 22 22 22 22 22 22 22 21 21 21 21 21 21 21 21 21 21 21 20 20 20 20 20 19 19 18 18 18 17
30 29 29 29 29 29 28 28 27 27 27 27 27 27 27 27 27 27 27 27 27 26 26 26 26 26 26 26 26 26 26 26 25 25 25 25 25 25 25 25 25 24 24 24 23 23 23 23 23 23 23 23 23 23 23 23 23 22 22 22 21 21 21 21 20 20 21 21 20 20 20 20 20 20 20 20 20 20 20 19 19 18 18 18 17
30 30 29 29 29 29 29 28 27 27 27 27 27 27 27 27 27 27 27 27 27 27 27 27 26 26 26 26 26 26 26 26 26 25 25 25 25 25 25 25 25 25 24 24 24 23 23 23 23 23 23 23 23 23 23 23 23 22 22 22 22 21 21 21 20 21 21 21 20 20 20 20 20 20 20 20 20 20 20 19 19 19 18 18 18
30 30 29 29 29 29 29 29 28 28 27 27 27 27 27 27 27 27 27 27 27 27 27 27 27 27 27 26 26 26 26 26 26 26 25 25 25 25 24 25 25 25 24 24 24 24 24 23 23 23 23 23 23 23 23 23 23 23 22 22 22 21 21 21 21 21 21 21 20 20 20 20 20 20 20 20 20 20 20 20 19 19 19 18 18
30 30 29 29 29 29 29 29 28 28 28 28 27 27 27 27 27 27 27 27 27 27 27 27 27 27 27 27 26 26 26 27 26 26 26 25 25 25 24 24 24 24 24 24 24 24 24 23 23 23 23 24 24 24 24 24 24 23 23 22 22 22 21 21 21 21 21 21 20 20 20 20 20 20 20 20 20 20 20 20 19 19 19 18 18
30 30 29 29 29 29 29 29 29 28 28 28 28 27 27 27 27 27 27 27 27 27 27 27 27 27 27 27 27 27 27 27 27 26 26 25 25 25 24 24 24 24 24 24 24 24 24 24 23 23 23 24 24 24 24 24 24 24 23 23 22 22 22 21 21 21 21 20 20 20 20 20 20 20 20 20 20 20 20 20 19 19 19 19 18
30 29 29 29 29 29 29 29 29 29 29 29 28 28 27 27 27 27 26 26 27 27 27 27 27 27 27 27 27 27 27 27 27 27 26 25 25 24 24 24 24 24 24 24 24 24 24 24 24 23 23 24 24 24 24 24 24 23 23 23 22 22 22 21 21 21 20 20 20 20 20 20 20 20 20 20 20 20 20 19 19 19 19 19 18
29 29 29 29 29 29 29 28 29 29 29 29 29 28 28 27 27 27 26 26 26 26 27 27 27 27 27 27 27 27 27 27 27 27 26 25 25 24 24 24 23 23 23 23 23 23 23 23 23 23 23 23 23 23 23 23 23 23 22 22 22 21 21 20 20 20 21 21 21 20 20 20 20 20 20 20 19 19 19 19 19 19 19 18 18
29 29 29 29 29 29 29 28 28 28 28 29 29 29 28 28 27 27 26 26 26 26 26 26 27 27 27 27 27 27 27 27 27 27 26 26 25 24 24 23 23 23 23 23 23 23 23 23 23 23 23 23 23 23 23 23 23 23 22 21 21 21 21 20 20 21 21 21 21 20 20 20 20 20 20 19 19 19 19 19 19 19 19 18 18
29 29 29 29 29 29 29 29 28 28 28 28 28 28 28 28 28 27 26 26 25 26 26 26 26 26 26 27 27 27 27 27 26 26 26 26 25 24 24 23 23 23 23 23 23 23 23 23 23 23 23 23 23 23 23 23 22 22 22 21 21 21 21 20 21 21 20 21 21 20 20 20 20 20 19 19 19 19 19 19 19 19 19 18 18
Height
844 845 846 846 847 848 849 850 851 852 853 853 852 851 852 851 853 854 854 854 854 853 853 853 854 854 854 853 853 852 852 852 851 853 854 855 857 858 860 861 862 863 864 864 865 865 866 867 868 868 869 870 871 871 872 873 874 874 875 876 876 876 877 877 878 878 878 879 879 879 880 880 880 881 881 881 882 882 882 883 883 883 884 884 884
844 845 846 846 847 848 849 850 851 852 853 853 852 851 852 852 853 854 853 853 853 853 853 853 853 854 854 852 851 851 852 851 851 852 854 855 857 858 860 861 862 863 864 864 865 865 866 867 868 868 869 870 870 871 872 873 873 874 875 875 876 876 877 877 878 878 878 879 879 879 879 880 880 880 880 881 881 881 882 882 882 883 883 883 883
844 845 846 847 847 847 849 849 851 852 853 853 852 852 853 853 853 853 853 853 853 853 853 853 853 854 853 852 851 851 851 851 851 852 854 855 856 858 860 861 862 863 864 864 865 865 866 867 867 868 869 869 870 871 872 872 873 874 874 875 875 876 876 877 877 878 878 878 879 879 879 880 880 880 880 880 881 881 881 881 882 882 882 882 882
843 844 845 846 846 847 848 849 850 851 852 853 853 853 854 854 853 853 853 853 853 853 853 852 853 853 853 852 851 851 851 851 851 852 853 855 857 858 859 861 861 862 864 864 865 865 866 867 867 868 869 869 870 871 871 872 873 873 874 874 875 875 876 876 877 877 877 878 878 878 879 879 879 880 880 880 880 880 880 881 881 881 881 881 882
844 844 846 846 847 848 848 849 850 851 852 852 853 853 853 853 853 853 853 853 853 853 853 852 853 853 852 852 851 851 851 852 852 851 852 854 856 858 859 860 861 862 863 863 864 865 866 866 867 868 869 869 870 870 871 872 872 873 873 874 874 875 875 876 876 876 877 877 877 877 878 878 879 879 879 880 880 880 880 880 880 880 880 881 881
844 845 846 846 847 848 849 849 850 851 851 851 852 852 853 853 853 853 853 853 853 853 853 852 852 852 852 852 851 851 851 851 852 852 853 855 856 858 859 860 861 862 862 863 863 864 865 866 866 868 868 869 869 870 871 871 872 873 873 873 874 874 875 875 875 876 876 876 876 876 877 877 878 878 878 879 879 879 879 879 879 879 880 879 880
843 844 845 846 847 848 849 849 850 850 851 851 851 852 852 852 853 853 853 853 853 853 852 852 852 852 852 852 851 852 851 851 853 853 854 856 857 858 859 860 861 861 862 862 863 863 864 865 866 867 867 868 869 869 870 871 871 872 872 873 873 874 874 874 874 875 875 875 876 876 876 877 877 878 878 878 878 878 878 878 878 878 878 878 879
842 843 844 845 847 847 848 849 850 850 851 851 851 852 852 852 853 853 853 853 852 852 852 852 852 852 852 851 852 852 851 852 853 854 855 856 857 858 860 860 861 861 862 862 862 863 863 864 865 866 866 867 868 869 869 870 870 871 872 872 872 873 873 873 874 874 874 875 875 875 876 876 876 877 877 877 877 877 877 877 877 877 877 877 877
842 843 844 845 846 847 848 848 849 850 850 851 851 851 851 852 852 853 853 853 852 852 852 851 851 851 851 851 851 852 851 852 854 855 856 857 858 859 860 860 861 861 862 862 862 863 863 863 864 865 866 866 867 868 868 869 870 870 871 871 872 872 872 873 873 873 874 874 875 875 875 875 875 876 876 876 876 876 876 876 876 876 876 876 876
841 842 843 844 845 846 847 847 848 849 850 850 850 851 851 851 852 852 853 853 852 852 851 851 851 850 850 850 851 852 852 852 854 855 856 857 858 859 860 860 861 861 862 862 862 863 863 863 864 865 865 866 867 867 868 868 868 869 870 870 871 871 872 872 872 873 873 873 874 874 874 874 874 874 874 875 874 875 875 875 875 875 875 875 875
840 841 842 844 844 845 846 846 847 848 849 849 849 850 850 851 851 851 852 852 852 852 851 850 850 850 850 851 851 852 853 853 854 855 856 857 858 858 859 859 859 860 861 862 862 863 863 863 863 864 865 865 866 867 867 867 867 868 868 869 870 870 871 871 871 872 872 872 873 873 873 873 873 873 873 873 873 873 874 874 874 874 874 874 874
839 840 841 842 843 844 844 845 847 848 848 848 849 849 850 850 850 851 851 851 852 851 851 850 850 850 850 851 852 853 853 854 854 855 856 857 858 858 858 858 859 859 860 861 862 862 863 863 863 864 865 865 866 866 866 866 867 867 867 868 868 869 869 870 870 870 871 871 871 872 872 872 872 872 872 872 872 872 873 873 873 873 873 873 873
838 839 839 841 842 842 843 845 846 847 847 847 847 848 849 849 849 850 850 851 851 851 851 850 850 851 851 852 852 853 854 854 855 855 856 857 857 857 857 858 859 859 860 861 862 862 862 863 863 864 864 865 865 865 866 866 866 866 867 867 867 867 868 868 869 869 870 870 870 871 871 871 871 871 871 871 872 872 872 872 872 872 872 873 873
837 837 838 840 840 841 842 844 845 846 846 846 846 847 848 848 848 849 850 850 851 850 850 850 850 850 850 852 853 853 854 854 855 855 856 857 857 857 857 858 859 859 860 861 861 862 862 863 863 864 864 864 864 864 865 865 865 865 866 866 866 867 867 867 868 868 869 869 870 870 870 870 870 871 871 871 871 871 871 871 872 872 872 872 872
835 836 837 838 839 840 841 843 843 844 845 845 845 846 846 847 847 848 849 850 850 850 850 849 849 849 850 852 853 854 856 855 854 855 856 857 857 857 857 858 859 859 860 861 862 863 863 863 864 864 864 864 864 864 864 864 865 865 865 866 866 866 866 867 867 867 868 869 869 870 870 870 870 871 871 871 871 871 871 871 871 871 871 871 872
834 835 835 837 838 839 840 841 841 842 843 844 844 844 845 845 846 848 848 849 849 849 849 849 849 849 850 852 851 853 858 856 853 854 855 856 857 857 858 858 859 859 860 861 862 863 864 864 864 864 864 864 864 864 864 864 864 864 865 865 866 866 866 867 867 868 868 869 869 869 870 870 870 871 871 871 871 871 871 871 871 871 871 871 871
832 833 834 835 836 837 838 839 840 841 842 843 843 843 844 844 846 847 847 848 848 848 849 848 849 848 849 851 852 855 856 853 852 854 854 855 857 857 858 859 859 860 860 861 862 863 864 864 865 865 864 864 864 864 864 864 864 864 865 865 866 866 867 867 868 868 869 869 869 870 870 870 871 871 871 871 872 872 872 872 872 872 871 871 871
831 832 833 834 835 835 837 838 839 840 840 841 842 842 843 844 845 846 846 847 847 847 847 848 848 848 848 849 851 853 851 850 853 856 855 854 855 857 858 858 859 860 861 861 861 862 863 863 864 865 865 865 864 864 864 864 864 864 865 865 866 867 867 868 868 868 869 869 870 870 870 871 871 871 872 872 872 872 872 872 872 871 871 871 871
829 830 831 832 833 834 835 837 838 838 839 840 841 841 842 843 844 845 845 846 846 846 846 847 848 848 849 849 849 849 849 849 852 856 857 856 855 856 857 858 859 860 860 861 861 861 862 863 863 864 865 865 865 865 865 865 865 865 866 866 866 867 867 868 868 869 869 869 870 871 871 871 872 872 872 872 872 872 872 872 872 871 871 871 871
827 828 829 830 831 833 834 836 837 837 838 838 840 841 841 842 842 843 844 845 845 845 845 846 847 848 848 849 849 848 849 849 850 853 856 858 856 855 856 857 857 859 859 860 860 860 861 861 862 862 863 864 865 865 865 866 866 866 867 867 867 868 868 868 868 869 869 870 870 871 871 871 872 872 872 872 872 872 872 872 872 871 871 871 871
824 826 827 829 830 831 833 834 835 836 836 837 838 839 840 841 841 842 843 844 844 844 844 845 846 847 847 848 849 849 849 850 851 851 852 856 857 855 854 855 856 857 858 858 859 859 859 860 860 861 861 863 864 865 865 866 866 867 867 868 868 868 869 869 869 869 869 870 870 871 871 871 871 871 871 871 871 871 871 871 871 871 871 871 871
822 823 825 826 828 829 830 832 833 834 835 836 837 838 838 839 840 841 842 842 843 843 843 844 845 845 846 847 848 848 849 850 850 851 851 853 854 853 853 854 855 856 857 858 858 858 859 859 860 860 861 862 863 864 865 865 866 867 867 868 869 869 869 869 869 869 869 869 870 870 871 871 871 871 871 871 871 871 871 871 871 871 871 870 870
819 821 822 824 825 827 828 830 831 832 833 834 835 836 837 838 839 840 841 841 842 842 843 843 844 845 846 846 847 848 849 849 849 850 850 851 852 852 852 853 854 855 856 857 858 859 859 859 860 860 860 861 863 864 865 865 866 867 867 868 869 869 869 870 869 869 869 869 870 870 870 871 871 871 871 871 871 871 871 871 871 870 870 870 869
816 818 820 821 823 824 826 828 829 830 831 832 834 835 835 836 837 838 839 840 841 841 842 842 843 844 845 846 847 847 848 848 848 849 850 850 851 851 851 852 853 854 855 856 857 858 858 858 859 860 860 861 862 863 864 864 865 866 867 868 868 869 869 869 869 869 869 869 869 869 870 870 870 870 870 870 870 870 870 870 870 869 869 869 869
813 815 817 819 820 821 823 825 826 828 829 830 832 833 834 835 836 837 838 839 840 840 841 841 842 843 844 845 846 846 847 847 847 848 848 849 850 851 851 851 852 853 854 855 856 857 857 857 858 859 860 860 861 862 863 864 865 866 867 867 868 868 868 869 869 869 869 869 869 869 869 869 869 869 869 869 869 869 869 869 868 868 868 868 868
810 812 814 816 818 819 820 822 824 825 827 828 830 831 832 833 834 835 836 837 838 839 840 840 841 842 843 844 844 845 845 846 846 847 847 848 849 850 851 851 851 852 853 854 855 855 856 856 856 857 859 860 860 861 862 863 864 865 866 866 866 867 867 867 867 868 868 868 868 868 868 868 868 868 868 868 868 868 868 868 867 867 867 867 867
808 809 812 814 815 816 817 819 821 823 825 826 828 829 830 832 832 833 834 835 836 837 838 839 840 841 842 843 843 843 844 844 845 846 846 847 848 849 850 851 852 853 853 854 854 854 854 855 855 855 857 858 859 860 861 862 863 864 864 864 865 865 866 866 866 866 867 867 867 867 867 867 867 867 867 867 867 867 866 866 866 866 866 866 865
805 807 809 811 812 814 815 817 819 821 822 823 825 827 828 829 831 832 833 834 835 836 837 837 838 839 840 841 842 842 843 843 844 844 845 846 846 848 848 849 852 854 854 854 854 853 853 854 854 855 855 857 858 859 859 861 861 862 863 863 863 864 864 864 865 865 865 865 866 866 866 866 866 866 866 866 866 865 865 865 864 864 864 863 863
803 804 806 808 810 811 812 814 816 818 820 821 823 825 826 827 829 830 831 832 833 834 835 836 837 837 838 839 840 840 841 842 843 843 844 845 846 846 847 847 850 852 854 855 854 852 851 852 853 853 854 855 856 858 858 859 860 861 861 862 862 862 862 863 863 863 864 864 864 865 865 864 864 864 864 864 864 864 864 863 862 862 861 861 861
800 801 803 805 807 809 810 812 814 816 817 819 820 822 824 825 827 828 829 830 831 831 833 834 835 836 836 837 838 839 839 840 841 842 842 843 844 845 846 847 848 849 850 853 853 850 850 851 851 851 852 854 855 857 858 858 859 860 860 860 860 860 860 861 861 861 862 862 863 863 863 863 863 863 863 863 863 863 862 861 861 860 860 859 858
797 799 800 802 804 806 807 809 811 813 815 816 818 819 821 822 824 826 827 828 829 829 830 832 832 834 834 835 836 837 838 839 840 841 841 842 843 844 845 845 847 847 848 850 851 849 849 850 850 849 851 853 854 856 857 857 858 859 859 859 859 859 859 859 859 860 860 860 861 861 861 861 861 861 862 862 862 861 861 860 859 859 858 857 856
794 796 797 798 800 802 805 807 808 810 812 813 815 816 818 819 821 823 824 825 826 827 828 829 830 831 832 833 834 834 836 837 838 839 840 840 841 842 844 844 845 846 846 848 849 848 848 849 849 849 850 852 853 854 855 856 856 857 858 858 858 858 858 858 858 858 858 858 859 859 859 859 860 860 860 860 860 860 859 858 858 857 856 855 855
790 792 794 795 797 799 802 804 805 807 809 810 812 813 814 816 817 819 821 822 824 825 826 827 827 828 829 830 831 832 833 834 835 837 838 839 839 840 842 842 843 844 845 846 846 847 847 848 848 848 848 849 850 852 853 854 854 855 856 856 856 856 856 856 856 856 856 857 857 858 858 858 858 859 859 859 858 858 857 856 856 855 854 854 853
786 788 790 792 794 796 798 800 802 804 805 806 808 809 811 812 814 815 817 819 820 822 823 824 825 825 826 827 829 830 831 832 833 834 835 836 837 838 839 840 841 842 843 844 845 845 846 846 846 847 848 847 848 850 851 852 852 853 853 854 854 854 855 855 855 855 855 855 856 856 857 857 857 857 857 857 856 856 855 855 854 853 853 852 852
783 785 787 789 791 793 794 796 798 800 801 803 805 806 807 809 810 811 813 814 816 818 819 821 821 822 823 824 825 827 828 829 830 831 832 834 835 836 837 838 839 840 841 842 842 843 844 844 845 846 846 847 847 847 849 849 850 851 851 852 853 853 853 853 853 853 853 854 854 855 855 855 855 855 855 855 855 854 853 853 852 852 851 851 850
779 781 783 785 787 789 791 792 794 796 797 799 801 803 804 805 806 808 809 811 812 814 816 817 818 819 819 820 822 824 825 826 827 829 830 831 832 832 834 835 836 837 838 839 840 841 842 843 843 843 845 845 845 846 847 847 848 849 849 850 851 851 851 851 852 852 852 852 852 853 853 853 853 853 853 853 853 852 852 851 851 850 850 849 849
775 777 779 781 783 785 786 788 790 791 793 795 797 799 800 802 803 804 806 807 809 810 812 813 815 816 816 817 819 821 823 823 824 826 827 828 829 829 830 832 833 834 836 836 837 838 840 840 841 841 842 843 844 844 845 845 846 848 848 848 849 849 849 850 850 850 850 850 850 851 851 851 851 851 851 851 851 851 850 849 849 849 848 848 847
770 773 775 777 778 780 782 784 785 787 789 791 792 794 796 798 799 801 802 804 805 806 808 809 811 813 813 814 815 817 819 820 821 822 823 825 826 826 827 828 829 831 832 833 834 835 837 838 839 839 840 840 841 842 843 843 844 845 846 847 847 847 848 848 848 848 848 848 848 848 849 849 849 848 848 849 849 848 848 848 847 847 847 847 846
766 768 770 772 773 775 777 779 781 783 784 786 788 789 792 794 795 797 798 800 801 802 803 805 807 809 810 811 812 813 814 816 817 818 819 821 822 823 823 825 826 827 828 830 831 832 833 835 836 837 837 838 839 839 840 841 842 843 844 845 845 845 845 846 846 847 847 847 846 847 847 847 846 846 846 846 846 846 846 846 846 845 845 845 844
761 763 765 767 769 771 773 774 776 778 780 781 783 785 787 789 791 792 793 795 796 797 798 800 802 804 805 806 807 808 809 810 812 813 814 816 817 818 820 821 822 823 824 826 827 829 830 831 833 834 835 836 836 837 838 839 840 840 840 842 842 842 843 844 844 845 846 845 845 845 845 845 844 844 844 844 844 844 844 844 844 844 844 843 843
757 759 761 763 765 767 768 770 771 773 775 776 777 779 781 783 786 787 789 790 792 793 794 795 796 798 799 800 801 802 802 803 805 807 808 810 811 813 815 817 818 819 820 822 823 825 827 828 829 831 832 833 833 834 835 835 835 836 837 839 840 840 841 842 842 843 843 843 844 843 844 843 843 843 843 843 842 842 842 842 842 842 842 842 841
752 755 757 760 761 762 764 765 767 768 769 770 772 774 776 778 780 782 784 785 787 788 789 790 791 793 794 795 795 796 797 797 798 800 802 804 806 807 809 811 813 815 816 818 819 821 822 824 825 827 828 829 829 830 831 831 832 833 835 836 837 838 839 840 840 840 840 841 842 842 842 842 842 842 841 841 840 840 840 839 839 840 840 840 840
748 750 753 755 756 758 759 761 762 763 763 765 766 768 770 772 775 777 779 780 781 783 784 785 786 787 788 789 790 791 792 792 793 795 797 799 801 803 806 807 808 809 811 813 815 816 818 819 821 822 823 824 825 826 827 828 830 831 832 833 834 835 836 837 837 837 838 839 839 839 840 840 840 840 839 839 839 838 838 837 837 838 838 838 838
744 746 748 750 752 754 755 756 757 757 758 759 760 762 764 767 769 772 774 775 776 777 778 779 780 781 783 784 785 787 788 788 790 792 794 796 798 800 802 803 804 805 806 807 809 811 813 815 816 817 818 819 821 822 823 824 826 827 829 830 831 832 833 834 835 835 835 836 836 837 837 838 838 838 837 837 837 836 836 835 835 836 836 836 836
740 742 743 745 747 749 750 751 752 752 753 754 755 757 759 761 764 766 768 770 770 771 772 773 775 776 777 779 780 782 783 785 787 788 790 792 794 796 798 799 800 801 802 804 805 806 808 809 810 811 813 814 816 817 819 821 822 824 825 826 827 828 829 830 831 832 832 832 833 834 835 835 836 836 835 835 835 835 834 834 834 834 834 834 834
736 737 739 740 742 744 744 745 746 747 748 749 750 752 754 756 759 761 763 765 765 765 766 768 770 771 772 773 774 776 778 780 781 782 784 786 789 791 793 794 795 796 797 799 801 802 803 804 805 806 808 810 811 812 815 817 818 818 820 821 823 824 826 827 828 829 829 829 831 832 832 833 833 833 833 833 834 833 833 832 833 833 833 832 832
730 732 734 736 737 738 740 741 742 742 743 745 746 747 749 751 754 757 759 760 761 761 761 762 764 765 766 768 769 770 772 774 774 775 777 780 783 785 787 788 788 789 790 792 794 796 798 799 800 802 803 805 807 809 811 813 814 814 816 817 819 821 823 824 826 827 827 827 829 830 830 830 831 831 831 831 832 832 831 831 831 831 831 831 830
727 728 730 731 732 734 736 738 739 738 739 741 742 743 744 747 750 752 754 755 756 756 756 757 758 759 761 763 764 765 767 768 769 770 772 775 777 779 780 781 782 783 784 785 787 790 792 794 796 798 799 801 803 805 807 808 810 811 813 815 816 818 819 821 822 823 824 825 826 827 828 828 828 829 829 829 830 830 830 830 829 829 829 829 829
723 725 726 727 729 731 732 733 734 733 735 737 738 738 740 742 745 746 748 750 751 751 751 752 753 754 755 757 758 760 761 762 763 764 766 769 771 772 773 775 777 779 780 781 783 785 787 789 792 794 796 797 799 801 802 804 805 807 809 811 812 814 815 816 818 819 821 822 822 824 825 825 826 826 827 827 828 828 828 827 827 826 827 827 827
720 722 723 724 726 727 728 729 729 730 731 732 734 734 735 737 739 741 743 746 747 746 746 748 750 750 750 751 753 753 753 755 758 760 761 763 764 766 767 769 772 773 774 776 779 781 783 786 789 791 792 794 795 796 798 799 801 802 803 805 808 810 811 812 813 815 816 817 818 820 821 822 823 824 825 825 825 825 825 825 824 824 825 825 825
718 719 720 721 722 723 724 725 726 726 727 728 730 730 731 734 735 737 740 742 741 740 742 744 746 746 746 746 747 746 747 750 753 754 755 756 757 759 761 764 766 765 765 770 774 775 777 781 783 785 786 788 790 792 793 795 796 797 798 800 803 806 807 808 808 810 812 814 815 817 818 819 821 822 822 823 823 823 823 823 822 822 823 823 823
Wind_Speed
10 8 5 4 3 2 2 1 2 2 2 1 2 3 2 2 3 5 3 2 2 3 2 4 5 4 3 1 4 3 5 9 13 13 13 13 12 11 9 9 9 9 9 10 9 9 9 8 8 9 9 8 8 8 8 8 7 7 6 6 5 5 5 5 5 5 5 5 5 4 4 3 2 2 1 1 1 0 0 1 1 2 2 3 4
10 7 5 5 4 3 2 1 1 2 2 1 2 4 2 2 5 5 2 1 2 3 2 2 4 3 3 0 3 2 2 5 14 16 14 13 12 11 9 8 9 9 9 9 9 9 8 9 9 8 9 8 8 8 8 8 7 7 7 6 6 5 5 5 5 4 5 5 4 4 4 3 3 2 2 1 1 1 1 2 2 2 3 3 4
7 6 6 6 4 3 2 1 2 3 2 1 3 3 3 2 4 2 1 1 1 2 2 3 5 4 4 1 3 2 3 2 15 18 14 13 11 11 9 7 8 8 9 9 9 10 9 9 9 8 8 8 8 8 8 8 7 7 7 7 7 6 6 5 5 4 4 4 4 4 4 4 4 3 3 2 2 2 3 3 3 4 4 4 5
5 6 5 6 4 3 2 1 1 3 3 2 1 2 3 2 1 1 1 0 1 2 2 3 5 3 3 1 2 2 3 5 17 18 13 12 11 11 9 7 7 7 8 9 9 10 9 9 8 8 8 8 8 8 8 8 7 8 8 7 7 7 6 6 6 5 5 5 5 5 4 5 5 4 4 4 4 4 4 4 4 5 5 5 6
6 7 5 5 4 3 4 4 2 3 2 2 1 3 3 2 1 1 0 1 1 3 3 3 4 3 2 1 1 2 1 4 15 18 15 13 11 9 8 7 7 7 8 8 9 9 9 9 9 9 8 8 8 8 8 7 7 7 8 8 7 7 6 6 6 6 6 6 6 6 5 5 5 5 5 5 5 6 6 6 6 6 6 6 7
7 8 6 5 6 5 5 5 4 3 2 2 2 3 2 1 1 1 1 1 2 4 3 3 4 3 3 2 1 2 2 3 10 15 15 13 10 8 7 7 7 8 9 8 9 9 10 10 9 9 8 8 8 8 8 7 7 7 8 8 8 7 7 7 7 7 6 7 7 7 6 6 6 6 6 6 7 7 7 7 7 7 7 7 8
9 9 8 7 7 7 6 5 4 3 3 3 3 2 2 1 0 1 2 1 3 3 4 4 3 3 3 3 2 2 3 7 9 12 12 10 9 9 8 7 7 8 9 9 9 9 10 10 10 10 9 9 8 8 8 8 8 8 8 8 8 8 8 8 8 8 8 7 8 7 7 7 7 7 7 8 8 9 9 8 8 8 8 9 9
10 10 9 8 8 7 7 6 4 4 4 4 2 3 3 1 1 1 2 1 2 2 4 4 3 2 2 5 4 2 5 11 12 13 11 8 8 8 9 8 7 7 7 8 8 8 9 10 11 10 9 9 9 9 9 8 8 8 8 8 8 8 8 8 8 8 9 9 8 8 8 8 7 8 8 8 9 9 10 10 10 10 10 10 10
12 11 9 8 8 7 7 7 6 6 5 3 3 4 3 2 1 1 2 2 2 1 3 3 3 2 3 3 5 5 8 12 12 11 9 7 7 8 9 7 6 7 8 7 6 8 9 9 10 10 9 9 8 8 8 8 9 9 9 9 9 9 8 8 8 8 9 9 9 8 8 8 8 8 8 9 10 10 11 11 10 10 11 10 10
13 12 11 8 7 7 7 8 8 7 6 5 5 5 3 2 2 2 1 2 2 1 1 2 2 3 2 4 5 5 8 11 11 10 8 7 7 8 8 7 7 7 8 9 7 6 7 9 10 9 9 8 7 7 7 8 9 9 9 9 9 9 8 8 8 8 8 9 9 9 9 9 9 9 10 10 10 10 11 11 11 11 11 11 11
14 13 12 10 8 8 8 9 9 7 6 6 5 5 4 3 2 2 1 1 0 1 0 1 2 3 5 7 5 4 8 11 11 9 7 6 6 7 7 8 9 8 7 9 9 7 5 8 9 9 8 6 5 5 5 6 7 8 9 8 8 8 8 8 8 8 8 8 9 9 9 10 10 10 10 10 10 10 11 11 11 11 11 11 11
14 14 13 11 10 10 8 8 8 7 7 7 6 5 5 5 3 2 1 0 1 1 2 2 4 4 6 8 4 2 7 9 8 8 7 5 6 7 7 9 10 10 9 9 8 7 6 6 7 6 5 4 5 5 5 5 5 7 8 8 7 8 8 8 8 8 8 8 9 10 10 10 10 10 10 10 10 10 10 10 10 10 10 10 11
14 14 13 12 11 10 9 8 9 9 8 7 6 5 4 4 4 3 2 1 1 1 0 4 8 5 4 6 5 3 5 6 5 7 7 5 6 5 6 8 9 8 9 8 7 8 8 7 8 7 5 6 7 7 6 5 4 6 7 8 7 7 8 8 8 8 8 8 8 8 9 9 8 8 9 8 8 8 7 8 8 8 8 9 9
15 15 14 13 13 12 11 11 11 10 10 8 6 5 5 4 4 4 4 3 3 2 4 5 6 8 6 5 5 3 4 4 4 7 8 6 6 4 5 11 11 7 8 8 7 9 9 9 9 7 6 6 7 8 8 6 4 5 7 8 8 7 8 8 8 7 7 6 6 6 6 6 5 5 5 5 6 5 5 5 6 6 6 7 7
15 16 15 14 15 14 12 11 11 11 10 8 8 7 6 5 5 5 4 5 4 2 4 5 3 8 7 4 4 3 3 2 5 7 8 7 6 4 5 10 11 8 7 9 7 8 9 8 8 7 6 6 6 7 7 6 5 5 7 8 8 8 8 8 7 7 6 5 5 4 4 4 3 3 3 3 3 3 2 2 3 3 4 5 5
16 16 16 15 16 16 14 12 12 11 10 10 10 8 7 7 7 7 6 6 5 4 3 3 3 8 4 1 3 4 2 4 6 7 9 7 6 6 5 6 7 7 8 10 8 7 7 7 8 7 7 6 5 6 7 6 6 5 6 7 8 8 8 8 7 6 5 4 4 3 3 3 3 2 2 1 1 0 1 1 2 3 3 4 5
17 17 17 16 16 17 16 14 13 12 12 11 10 9 8 8 8 8 8 7 5 6 4 3 3 3 1 1 2 2 1 6 7 4 6 8 7 7 6 5 5 4 6 10 8 7 7 6 7 7 8 6 5 5 5 5 5 6 6 6 7 7 8 8 7 6 5 4 4 4 4 4 3 3 2 2 2 1 2 2 2 3 3 4 5
18 18 17 17 17 17 16 15 15 14 13 12 10 9 9 8 9 10 9 7 4 6 7 6 4 3 1 1 1 0 2 6 5 1 1 5 7 9 6 6 7 3 4 7 9 9 7 6 7 7 7 7 6 6 4 3 3 4 5 6 6 7 8 8 8 8 7 7 6 5 5 4 4 3 3 2 2 1 1 2 2 2 3 3 4
19 19 18 18 18 18 17 16 16 15 13 12 10 9 9 9 10 10 9 8 6 6 7 8 6 4 4 3 3 2 1 3 5 2 1 1 2 7 8 7 8 7 6 8 11 11 8 8 8 7 7 6 7 7 7 6 5 3 3 6 7 7 8 9 9 9 8 8 7 6 5 5 4 3 3 2 1 1 1 2 2 3 3 4 5
20 20 20 20 19 19 19 18 17 15 14 14 12 10 10 10 10 10 9 9 8 7 6 9 9 6 6 6 5 3 1 2 6 5 3 1 1 4 8 10 10 10 9 10 12 13 11 11 9 8 8 6 6 7 7 7 7 5 4 6 7 7 8 8 8 8 8 7 6 6 5 4 3 2 1 1 1 1 2 3 3 4 4 5 5
22 21 21 21 20 20 20 20 18 16 14 14 13 12 12 11 11 12 11 10 10 9 6 7 10 8 9 9 6 4 4 3 5 4 3 3 2 4 6 8 8 10 10 8 11 15 13 11 9 10 9 6 8 8 6 5 5 5 5 5 6 6 7 7 7 7 7 7 6 5 3 2 1 0 1 1 2 3 4 5 5 6 7 7 7
23 22 22 22 22 21 20 20 20 17 15 14 13 13 13 13 13 13 13 11 11 11 9 7 8 8 12 13 8 5 6 7 7 8 6 2 1 4 8 9 7 8 8 7 9 13 13 12 9 10 10 7 8 8 7 6 5 5 5 5 6 6 6 6 6 6 6 5 5 4 3 2 2 2 2 3 4 5 5 6 7 8 9 9 9
23 23 23 23 23 22 20 20 20 18 18 16 15 14 14 14 14 13 14 13 12 12 10 9 9 8 9 13 11 7 6 7 8 9 7 4 4 4 6 9 9 10 10 8 7 6 10 13 8 9 11 6 6 8 7 7 6 6 7 6 5 6 6 6 6 6 5 5 4 4 3 3 3 3 4 5 5 6 7 8 9 9 10 10 10
22 23 23 23 24 24 22 20 19 19 19 18 16 14 14 15 15 15 15 14 13 13 12 11 9 9 9 11 11 10 9 9 10 9 6 6 6 3 1 4 6 11 12 8 6 6 8 11 8 9 11 6 8 10 7 8 9 7 8 8 7 7 7 7 7 7 6 5 5 5 4 5 5 6 6 7 8 8 9 10 11 11 12 12 13
22 23 24 23 24 25 24 22 21 20 20 19 18 16 14 15 16 16 16 16 15 14 15 13 11 12 12 11 11 12 12 11 11 10 8 6 2 2 3 5 5 9 12 10 10 10 12 13 12 12 11 9 12 12 8 8 9 8 9 9 9 8 8 8 9 8 8 8 7 6 6 6 7 7 8 9 10 11 11 12 13 14 14 14 15
23 24 24 24 24 26 26 24 22 21 21 20 19 18 16 15 16 16 16 17 16 15 16 15 13 13 14 12 12 12 13 12 10 9 10 9 6 5 5 4 4 7 10 11 11 9 11 14 15 15 14 11 12 13 11 10 9 11 12 9 8 8 8 9 10 11 11 10 9 8 7 8 8 9 10 11 12 12 13 14 14 15 15 15 15
25 24 23 24 25 26 26 26 24 22 22 22 21 19 18 17 17 17 17 17 17 17 17 16 14 15 15 15 14 12 12 12 12 10 10 10 11 11 8 3 2 3 6 7 8 8 10 11 12 15 15 13 11 11 10 10 11 12 12 10 9 9 10 10 10 12 13 12 11 10 9 9 10 11 11 12 13 13 14 15 15 15 16 16 16
25 25 24 24 26 26 26 26 25 24 23 23 23 21 20 19 18 18 18 17 18 18 18 17 16 16 16 16 16 15 12 12 12 12 12 11 11 13 13 8 3 2 3 4 5 8 11 11 10 13 16 15 14 12 10 9 11 12 12 11 11 11 11 11 11 12 13 14 14 12 11 11 12 12 13 13 14 14 15 16 17 18 18 18 17
24 25 25 25 26 27 27 26 25 25 24 24 24 22 21 21 20 20 19 18 19 20 19 19 17 17 17 18 18 18 15 11 12 12 12 12 9 8 11 12 8 5 2 2 5 8 11 13 11 12 13 14 14 14 13 12 12 12 13 11 10 12 13 13 12 12 12 14 15 14 13 13 13 13 13 14 14 15 17 18 19 20 21 20 20
24 23 24 26 26 26 27 26 25 26 25 24 25 24 22 22 21 21 21 20 20 21 21 20 19 18 18 19 19 20 18 12 12 13 12 12 12 8 7 10 11 9 4 1 4 9 11 10 9 13 14 12 11 11 13 14 14 13 13 11 10 12 13 12 12 11 11 11 12 13 13 13 13 13 13 14 15 17 18 19 20 21 22 21 20
27 25 24 26 27 27 27 26 26 26 25 25 25 25 24 24 22 21 22 21 21 22 23 22 20 19 19 19 20 21 20 15 13 14 12 12 15 13 9 10 12 12 10 4 2 7 10 7 4 12 15 11 10 11 11 12 13 12 13 12 11 12 12 11 12 11 11 11 11 12 13 13 13 13 13 14 15 18 19 20 20 20 20 19 18
28 28 26 25 27 28 27 27 26 26 26 26 26 26 26 25 24 22 22 23 23 23 23 23 21 21 21 21 21 22 22 18 16 16 14 13 15 16 14 13 13 13 13 9 4 5 9 8 4 10 13 10 10 12 12 11 11 13 14 13 13 14 14 13 14 13 12 11 11 12 12 12 12 12 13 15 16 19 20 20 19 18 17 17 16
28 29 29 27 26 27 28 27 27 26 27 27 27 27 28 28 27 24 23 24 25 24 24 24 23 22 22 23 22 22 23 22 19 18 17 15 15 17 17 16 15 15 15 13 9 6 8 10 9 8 10 13 14 13 13 12 12 13 14 14 14 14 15 16 15 13 12 11 11 11 12 12 12 13 14 16 18 19 19 18 17 16 16 16 16
30 30 31 30 28 28 28 29 29 28 28 29 28 28 29 29 29 27 25 25 26 26 25 25 25 24 23 25 24 23 23 24 23 21 20 18 17 18 19 18 18 17 17 16 13 10 9 10 12 10 9 13 15 14 13 14 14 14 14 14 15 15 15 15 14 13 12 12 12 12 12 13 13 14 15 17 19 19 17 16 15 15 16 16 16
31 31 30 31 31 30 29 29 30 30 30 30 30 29 30 30 30 29 27 27 28 28 27 27 27 26 25 25 26 25 23 24 24 23 22 21 20 20 20 20 20 18 19 19 16 13 11 11 13 14 11 12 13 12 13 15 15 15 15 14 15 16 15 14 14 14 14 14 13 12 13 14 14 14 16 17 17 15 14 13 13 14 16 16 15
30 31 31 31 32 32 31 31 31 32 31 31 31 31 30 31 31 30 29 28 29 30 29 29 29 28 27 27 27 27 25 25 25 25 24 23 23 23 22 22 22 20 19 20 20 17 14 13 14 15 14 13 13 12 12 14 16 15 15 15 15 16 16 15 14 15 15 14 13 13 13 14 14 15 16 17 15 13 11 11 12 13 14 14 14
30 31 32 32 32 34 34 33 33 33 33 32 32 32 31 31 32 32 30 30 30 30 31 30 30 30 29 28 28 28 27 26 26 26 26 25 25 24 24 24 23 23 21 20 22 21 17 14 13 15 15 15 16 16 14 14 16 16 15 15 15 16 17 17 15 15 15 15 15 14 15 15 15 15 16 16 15 12 11 10 10 11 11 11 12
32 31 33 34 34 35 35 35 34 34 34 34 34 34 33 31 32 32 31 31 31 31 32 32 31 31 31 30 29 29 29 29 28 28 28 28 27 26 26 26 25 24 23 21 22 24 22 18 14 14 17 17 16 18 18 17 17 16 16 16 16 18 18 18 17 15 14 15 15 15 15 14 14 15 15 16 14 12 10 9 10 11 10 9 10
33 32 33 35 36 36 36 37 36 36 36 35 35 35 34 32 32 32 32 31 31 32 32 33 32 32 32 31 30 30 31 31 31 30 30 30 30 28 28 27 26 26 25 23 22 23 24 21 18 16 17 18 17 17 17 18 17 17 17 16 17 20 20 19 19 17 14 13 12 12 12 12 15 16 15 15 15 13 11 10 11 11 9 9 10
33 33 33 35 36 36 36 37 38 37 37 37 36 36 36 35 33 33 33 32 32 32 33 33 33 33 33 33 32 33 34 35 34 33 33 33 32 31 30 29 28 27 27 26 24 23 23 22 20 18 17 18 19 18 16 17 19 20 20 19 18 19 20 20 20 19 18 16 13 12 11 12 15 17 15 14 14 13 12 11 12 12 11 11 12
34 33 32 33 34 36 36 36 37 37 37 38 38 38 38 37 36 34 34 34 33 32 33 33 34 34 34 34 34 35 36 37 38 37 36 36 35 34 33 31 30 29 28 28 26 24 23 21 21 20 19 18 20 20 19 20 22 23 22 20 19 17 16 17 18 19 19 19 18 16 13 10 11 12 12 12 12 13 12 12 13 14 14 13 13
34 34 33 32 32 34 35 36 36 37 37 37 39 40 41 40 38 36 34 34 34 34 33 33 34 35 35 35 35 36 37 38 40 40 40 39 38 37 36 35 34 32 30 28 27 26 24 22 21 21 20 19 20 22 23 23 24 23 21 20 21 19 15 12 13 15 17 16 16 15 13 11 10 10 11 11 11 12 12 11 12 14 14 13 11
35 35 35 34 33 32 33 34 35 36 37 38 39 42 43 43 41 38 36 35 35 36 35 35 35 36 36 36 36 36 38 40 41 42 42 41 40 38 38 37 38 37 34 31 29 27 26 24 23 23 22 21 22 24 23 23 22 22 21 21 20 18 17 13 11 12 15 14 13 13 14 13 12 11 11 11 11 12 13 13 12 12 12 10 8
35 35 35 36 35 33 32 33 34 35 37 38 40 42 44 46 45 42 38 36 36 36 37 37 36 36 36 37 37 36 38 40 42 42 42 43 41 39 39 38 39 39 39 36 33 31 29 26 24 24 24 23 23 24 25 24 23 23 22 22 20 18 17 16 14 13 13 14 15 15 15 13 10 10 11 12 13 14 14 13 11 9 10 10 9
35 35 36 37 36 36 34 34 35 35 35 37 40 42 44 46 47 44 40 38 37 37 37 38 38 37 37 37 37 36 36 38 40 42 43 43 43 41 40 39 39 40 40 39 36 34 33 31 28 27 27 26 25 26 26 25 24 24 24 22 21 20 18 17 17 15 13 14 17 15 13 12 10 9 11 12 11 12 13 11 11 11 12 11 10
35 35 36 36 37 38 38 36 36 36 36 36 38 41 44 46 47 47 44 40 38 38 38 38 38 39 39 38 37 37 36 35 39 41 43 45 45 44 42 41 41 41 41 40 38 36 34 32 31 30 29 28 27 27 27 26 24 25 26 25 23 21 20 18 17 14 13 15 17 14 12 12 10 10 12 11 9 10 12 12 12 12 11 11 12
35 36 36 36 37 38 39 37 36 35 35 35 37 40 43 44 47 49 47 42 39 38 38 39 39 40 40 40 39 38 37 36 38 40 42 44 46 46 45 44 43 42 42 44 43 40 38 35 33 31 30 30 28 26 25 25 24 23 23 23 23 22 19 17 15 14 13 15 16 13 12 13 11 9 11 10 8 9 10 10 10 10 12 14 13
32 34 35 35 35 36 36 37 36 36 35 35 36 39 42 43 45 48 49 45 41 39 38 38 40 40 40 40 39 39 39 38 39 41 42 43 45 46 46 45 44 42 42 44 45 44 41 38 35 31 29 29 29 26 25 24 24 23 20 19 20 20 18 15 15 15 15 16 18 17 15 13 11 10 10 9 9 10 10 11 12 13 15 15 12
29 30 32 33 34 34 34 36 37 38 36 34 36 38 40 43 45 48 50 47 43 42 41 39 39 40 40 41 40 39 40 40 40 41 42 43 44 45 46 45 42 40 38 40 43 45 43 40 38 34 29 26 27 28 27 25 24 25 23 20 20 21 19 15 14 14 16 18 20 21 18 14 12 12 11 10 9 11 12 12 13 13 12 11 11
28 28 28 30 32 32 33 35 37 38 37 35 36 38 39 41 45 48 50 47 43 43 42 39 38 38 39 41 42 42 41 41 41 41 42 44 45 45 45 43 40 39 39 37 39 42 43 41 38 36 32 28 26 27 29 28 27 28 28 26 23 22 20 17 16 16 16 18 22 23 20 15 13 12 11 9 9 11 12 11 9 8 7 9 11
28 27 26 27 29 30 32 33 35 37 37 35 36 38 38 39 43 47 48 46 43 42 40 37 36 37 38 40 42 45 45 41 40 41 44 46 47 45 44 41 39 41 42 38 37 40 42 43 40 38 37 34 31 29 29 31 31 31 31 29 26 24 22 21 20 16 11 12 19 24 21 17 15 13 10 7 6 8 9 9 7 6 8 9 10
Wind_Direction
174 190 193 168 152 146 156 171 136 173 250 291 275 256 261 302 241 231 223 168 128 105 116 137 126 110 117 180 230 189 110 134 152 146 137 140 138 136 141 147 161 166 161 161 162 165 169 166 165 165 165 165 169 168 163 164 165 164 164 164 165 162 158 160 164 165 169 173 169 169 173 174 180 182 175 177 180 299 7 360 349 334 331 330 327
175 187 184 169 158 162 160 150 164 203 251 288 247 275 306 284 248 239 200 154 85 88 114 129 131 117 110 194 278 210 138 137 149 146 133 133 137 136 138 140 153 166 163 159 160 165 171 168 170 173 169 168 174 177 173 173 175 175 176 177 179 180 179 179 180 178 180 187 188 187 188 192 208 214 213 227 229 255 278 299 302 301 304 306 308
170 168 161 166 168 168 150 136 210 203 210 228 237 252 241 250 254 262 44 123 109 99 121 123 130 119 119 164 315 321 292 163 138 135 125 129 138 137 140 144 150 163 167 164 162 168 173 170 173 177 172 171 176 183 184 182 182 182 184 186 187 190 193 194 197 198 194 203 210 206 207 215 226 228 230 240 247 261 269 276 282 287 293 296 299
157 152 157 173 181 165 152 210 217 195 194 192 219 237 228 241 233 217 16 114 120 82 73 100 120 117 132 174 333 61 25 84 124 129 126 125 133 139 142 147 152 163 168 169 169 170 173 171 173 177 175 175 180 184 187 188 191 193 194 194 195 197 201 204 207 211 210 217 223 223 228 233 240 246 249 254 257 263 265 268 273 277 281 284 288
152 151 164 183 191 174 183 215 212 202 206 158 204 244 237 246 251 228 357 313 67 76 49 71 104 105 123 111 133 157 349 92 115 119 123 119 121 135 143 144 148 159 164 170 176 174 173 173 173 176 177 177 179 182 185 189 194 199 202 203 205 203 208 213 214 217 220 227 232 234 238 242 251 259 264 269 272 272 273 276 279 281 281 282 284
168 168 178 192 198 190 191 215 217 201 203 215 243 244 239 272 300 323 322 316 64 80 66 68 86 87 96 108 185 261 342 88 97 97 107 114 117 126 140 150 145 145 149 159 174 177 175 175 175 174 176 179 181 185 187 191 195 201 207 209 211 211 215 219 219 219 226 234 238 242 247 253 260 264 268 270 272 273 273 277 282 285 284 285 288
180 181 184 194 205 203 198 209 212 198 200 222 250 253 248 294 293 332 337 19 78 89 95 82 79 98 118 144 175 316 53 95 89 86 95 106 119 131 146 163 163 149 138 141 153 168 176 178 176 175 177 182 186 189 192 195 199 204 208 212 215 217 223 226 224 223 227 234 238 243 247 254 262 266 270 272 272 273 272 273 275 279 280 283 287
181 185 188 200 211 213 215 213 200 206 216 207 224 259 250 249 253 4 5 28 79 104 116 103 97 112 200 179 152 42 73 92 88 87 93 103 122 140 148 160 178 170 147 140 138 145 166 178 179 180 181 184 189 193 198 202 205 209 212 216 219 221 228 229 226 227 231 235 239 244 248 252 260 264 269 273 274 276 274 273 272 274 277 280 283
184 186 188 200 215 216 217 213 200 206 218 210 218 240 237 227 231 83 22 348 42 104 134 132 140 162 229 175 122 70 78 92 89 88 92 102 121 136 142 154 170 166 161 168 157 137 147 166 175 181 186 191 195 198 205 210 213 216 217 220 223 226 232 234 233 233 235 238 240 245 251 256 259 259 263 267 270 271 271 272 275 276 276 278 281
189 188 188 195 218 221 208 204 201 197 199 212 224 222 222 218 201 152 69 354 14 54 98 131 141 165 145 91 94 85 88 101 100 96 103 109 117 126 131 143 148 151 160 169 175 159 144 150 162 173 183 192 197 203 211 213 217 218 218 222 224 224 228 234 237 239 239 239 241 246 251 256 256 256 258 263 268 270 272 275 277 279 280 281 283
192 191 190 189 209 224 212 199 197 198 202 216 224 214 206 181 196 229 129 46 352 70 359 116 74 69 96 96 101 87 86 102 104 101 113 119 119 127 134 144 150 152 147 149 167 177 154 143 151 159 168 179 183 192 202 208 213 210 210 218 220 218 221 230 234 238 240 237 239 244 248 251 252 255 259 262 268 271 274 278 281 283 286 287 286
196 195 193 187 201 221 220 200 188 197 212 220 219 211 204 176 185 242 150 69 227 200 308 96 101 72 81 97 113 94 84 96 105 110 117 122 126 138 147 146 149 147 133 132 150 162 155 141 143 155 157 155 162 168 173 182 193 194 198 204 205 205 212 222 226 227 231 230 235 242 246 249 251 255 259 260 264 269 273 278 282 285 288 292 292
197 198 198 191 198 214 214 202 193 198 212 224 221 206 201 186 185 200 195 228 224 194 357 113 126 124 95 104 121 135 106 95 111 129 129 131 136 154 162 140 134 134 129 130 143 149 147 139 146 166 161 138 142 143 142 144 158 180 186 185 186 195 205 211 214 218 222 223 231 241 243 246 250 254 256 258 262 265 269 274 279 284 292 298 300
199 200 201 197 202 212 207 197 198 205 211 219 223 206 187 191 210 206 197 209 235 209 168 166 153 139 137 137 139 134 114 127 161 144 139 147 154 179 169 140 130 120 121 123 136 140 130 123 134 149 145 134 138 140 137 136 144 169 171 170 177 186 192 197 202 208 213 213 218 226 229 236 244 243 244 249 252 254 261 273 280 289 301 307 312
200 202 203 201 203 209 205 195 199 210 208 203 212 218 197 194 216 216 199 196 221 217 187 223 198 138 144 159 156 131 102 192 200 146 144 160 167 159 127 130 128 121 131 128 126 127 117 114 120 121 125 127 136 145 146 145 150 162 164 171 180 182 184 190 193 193 197 200 198 201 199 203 210 208 211 224 235 248 266 286 302 310 321 330 335
202 203 205 206 206 208 207 198 200 209 208 205 210 215 206 201 207 205 208 207 198 179 187 231 151 131 146 221 190 156 127 218 195 151 153 160 164 149 122 128 123 118 140 133 120 119 114 117 120 121 129 128 127 139 145 150 157 161 160 169 180 182 180 180 178 173 174 179 177 175 169 170 172 165 161 167 194 275 343 352 358 356 355 356 354
204 206 206 209 212 214 213 206 205 209 208 211 215 211 204 203 203 200 210 223 196 163 168 181 161 144 92 42 186 159 138 188 176 152 162 162 165 158 148 160 141 106 123 121 115 122 121 118 118 121 130 133 135 140 143 149 156 160 160 166 175 179 175 168 159 150 147 147 146 145 143 142 135 120 112 99 77 46 29 21 14 9 3 358 353
204 208 208 210 214 215 214 210 208 211 212 214 218 211 202 198 198 198 206 223 219 179 169 166 189 238 302 360 249 170 127 164 160 41 168 170 169 161 165 177 162 146 132 129 136 143 138 128 122 124 130 138 147 150 154 160 166 164 159 164 166 165 163 154 143 136 135 134 132 132 126 117 111 99 88 77 55 33 17 4 356 355 350 344 340
203 208 209 210 217 216 210 210 208 209 211 208 209 205 201 202 199 199 204 210 218 208 178 161 174 222 227 238 249 227 43 116 133 128 160 266 206 169 176 182 168 171 182 175 166 157 148 145 139 134 139 147 152 154 163 177 195 198 151 151 152 150 151 145 141 137 135 133 127 123 118 106 102 94 85 83 67 37 360 340 337 336 336 337 335
203 207 209 209 218 215 206 207 208 209 212 206 203 203 205 207 199 196 202 201 202 212 202 172 171 191 203 221 239 220 309 73 134 149 160 173 256 211 195 187 183 184 192 201 184 161 148 156 164 160 156 162 163 165 177 189 202 193 150 143 144 146 150 146 142 139 133 129 125 120 118 115 113 109 104 87 20 354 346 338 337 337 335 334 332
203 206 210 208 213 214 207 206 206 209 216 209 203 204 205 203 196 195 198 199 198 203 214 187 177 188 190 207 240 203 187 190 157 172 216 175 171 227 207 186 190 192 196 207 182 168 166 169 177 181 178 168 166 185 205 202 201 185 158 149 150 148 148 145 140 138 135 132 133 135 135 137 144 191 295 311 320 325 329 328 328 330 331 329 328
202 205 209 209 210 213 210 209 206 207 212 212 209 206 203 200 197 198 196 197 199 200 208 201 196 200 184 193 223 205 189 198 179 188 219 226 184 218 194 183 189 178 186 215 189 177 180 173 171 188 190 170 164 189 207 198 197 204 194 176 168 165 158 157 152 147 149 149 152 158 168 187 221 257 286 298 304 310 311 315 318 318 320 320 319
200 203 207 208 208 210 210 210 208 207 209 211 213 208 204 203 199 199 198 197 200 199 199 203 214 217 185 187 204 205 207 214 202 199 200 189 212 235 191 186 194 170 173 215 216 198 181 169 174 193 187 182 180 184 195 206 211 216 220 221 206 194 182 179 178 172 170 172 178 188 201 223 241 255 274 285 291 299 301 303 306 305 303 303 302
196 201 205 205 206 207 209 209 208 208 209 210 212 209 206 204 199 199 199 198 202 201 195 196 211 217 204 196 194 201 215 218 223 225 207 185 201 254 213 177 182 169 174 198 210 224 204 180 193 200 188 205 210 193 193 212 221 227 227 234 237 227 217 207 201 198 197 199 206 218 231 245 259 267 275 284 289 294 297 298 299 299 298 296 295
198 200 203 203 205 206 207 209 209 211 210 209 211 210 206 201 199 200 201 199 201 203 198 196 202 208 214 208 191 203 217 212 222 227 205 185 193 279 230 186 164 161 173 191 200 218 219 209 218 212 203 218 211 199 197 203 224 243 237 239 246 243 242 235 227 222 217 220 226 234 248 260 270 280 285 290 294 296 298 300 300 299 299 297 296
204 203 204 202 204 208 209 208 209 211 210 210 211 209 206 203 201 201 202 202 201 203 203 200 200 204 216 221 206 210 218 208 219 228 203 182 185 232 237 206 198 170 169 192 208 216 217 217 221 212 207 215 209 206 210 211 229 243 240 244 247 245 254 255 249 244 236 235 240 245 257 268 277 286 290 292 295 297 298 299 300 300 300 301 301
208 207 205 203 204 208 211 210 209 209 209 211 211 209 207 205 203 202 202 203 202 203 205 203 204 203 210 226 227 224 222 210 211 223 218 192 183 206 221 207 211 166 152 186 215 228 226 224 220 210 202 197 201 211 217 223 235 240 238 235 233 241 258 263 257 254 250 246 248 252 261 273 281 286 289 292 293 296 300 301 302 303 303 304 304
209 209 207 206 206 208 210 210 209 209 209 210 209 208 208 206 205 204 203 204 202 203 205 205 209 208 206 218 231 232 227 220 212 215 225 214 190 197 203 195 189 177 158 178 206 229 239 235 215 203 197 189 197 210 212 220 230 235 237 232 232 241 251 257 256 256 256 252 253 259 264 272 279 282 285 289 292 298 303 306 307 308 309 310 309
209 209 208 208 208 207 207 208 208 208 208 209 207 206 207 207 206 206 205 204 204 203 205 208 210 211 209 211 224 233 232 229 221 215 219 221 212 197 190 192 201 206 189 178 198 213 233 236 208 185 194 203 209 214 214 219 224 231 240 242 241 240 243 251 256 257 258 254 254 259 264 270 274 279 283 286 292 300 304 306 308 309 310 312 312
209 209 208 208 208 208 206 206 207 207 206 207 207 205 206 206 206 209 207 205 207 205 205 209 211 211 212 209 216 228 233 232 223 218 217 215 216 209 189 196 207 214 222 218 209 209 223 249 221 182 189 205 210 211 215 222 225 229 237 238 236 238 242 249 254 258 258 254 255 257 260 266 271 276 281 285 292 299 301 303 304 306 308 309 310
211 210 207 206 207 208 207 206 206 207 206 206 206 204 205 207 207 210 210 207 208 208 206 209 211 212 213 211 212 220 226 228 221 219 222 217 213 212 207 209 210 216 224 227 237 213 218 259 235 178 185 196 201 204 211 222 227 225 226 226 230 238 242 245 251 258 260 254 252 254 257 263 270 274 279 285 292 296 297 299 300 302 304 306 308
210 210 209 206 205 206 206 206 205 206 206 206 206 204 204 206 207 208 210 209 209 209 208 208 209 211 213 212 213 214 217 221 219 217 221 219 212 209 209 213 212 214 219 221 238 231 225 238 200 169 184 194 190 197 206 216 221 222 225 227 232 240 241 245 252 256 257 255 251 253 258 262 268 273 279 287 293 295 295 296 298 299 301 304 307
209 209 210 208 205 204 204 205 206 206 206 205 205 205 204 205 206 207 209 210 211 210 209 209 209 211 213 212 213 213 211 214 216 215 217 217 211 208 209 213 213 211 212 214 223 237 237 233 214 189 190 189 183 188 199 209 216 224 230 228 230 240 243 246 251 250 249 254 256 256 259 264 270 274 280 290 295 295 295 295 296 297 299 302 306
209 209 210 209 206 204 203 205 206 206 207 207 205 204 205 205 205 206 207 208 210 210 210 211 210 210 212 212 212 214 211 210 212 212 213 214 210 207 209 212 212 212 211 210 214 224 231 226 222 225 211 189 185 190 198 207 219 230 233 226 225 236 244 243 245 248 252 258 262 262 264 268 272 274 281 292 296 295 295 294 296 299 301 302 303
210 209 209 208 207 205 205 206 207 208 209 208 207 206 206 207 206 206 207 207 209 210 210 212 212 210 211 211 211 212 211 209 210 210 209 210 210 207 208 211 212 211 211 210 209 215 226 226 220 224 223 200 192 200 206 210 220 231 234 229 223 229 238 237 235 243 254 261 264 264 263 265 269 272 281 291 294 293 294 295 299 301 301 301 301
209 209 209 208 207 207 206 207 207 209 210 209 208 208 208 209 209 208 207 207 208 210 211 213 213 211 210 210 211 211 211 210 210 210 208 208 209 207 207 209 210 210 210 211 209 210 220 225 215 212 219 214 208 212 213 210 215 225 232 232 226 227 233 235 233 240 250 257 260 257 256 262 268 271 279 287 291 293 296 299 300 302 301 298 297
207 208 208 207 207 207 207 207 208 209 210 209 208 209 210 211 211 210 210 209 208 210 213 214 215 214 212 211 211 211 211 211 210 211 210 209 209 208 207 207 208 209 209 211 210 209 214 222 217 208 211 218 219 218 215 210 211 221 230 231 227 228 232 235 237 243 250 253 254 255 259 264 267 269 274 281 284 288 295 299 298 301 304 299 293
207 207 208 207 207 208 208 209 210 210 210 210 209 209 210 211 212 212 212 212 211 211 213 215 216 216 215 213 212 211 211 211 211 211 212 211 210 209 207 207 207 206 208 209 208 206 210 219 222 214 210 215 216 210 211 215 214 218 227 230 230 233 236 238 239 243 251 255 254 255 257 259 265 270 271 272 275 281 286 288 293 301 303 294 289
207 206 207 208 208 208 209 210 211 211 211 211 211 210 210 211 212 212 212 213 213 212 213 215 216 217 217 216 214 213 213 213 213 213 212 211 212 211 209 207 206 204 206 208 206 203 206 213 220 220 216 215 213 207 209 216 218 219 224 227 231 235 238 240 239 239 245 252 252 250 254 264 272 272 271 274 278 281 279 276 284 292 287 276 276
207 207 207 208 209 209 210 211 211 212 212 212 211 211 210 211 212 212 212 212 213 213 213 214 216 217 217 217 217 216 215 216 215 214 213 212 210 210 210 207 205 204 203 205 206 203 202 206 213 219 219 216 213 212 211 210 212 218 222 224 229 234 236 238 241 240 240 243 241 237 251 270 269 263 266 277 280 277 275 273 275 275 269 266 270
207 209 209 208 208 209 211 212 212 213 213 213 212 211 210 211 212 213 213 212 213 214 214 214 215 216 217 217 218 218 217 217 217 216 216 214 211 209 208 206 205 204 203 203 205 203 200 202 207 211 215 215 211 210 210 209 211 218 221 223 228 234 235 234 237 238 240 244 244 240 247 259 255 251 261 273 278 278 277 272 264 259 258 262 265
207 208 210 209 208 209 211 212 213 213 215 215 214 214 213 212 212 213 214 214 214 214 215 215 215 216 217 218 218 219 218 217 218 217 216 216 215 213 210 207 205 204 202 202 203 202 201 202 204 205 207 212 211 208 210 213 216 218 219 219 224 229 230 227 233 238 238 241 242 237 237 240 241 251 261 266 272 279 277 266 252 246 249 254 260
208 207 208 210 210 209 210 211 212 213 216 218 217 216 215 214 213 213 215 215 214 215 217 216 216 217 218 219 220 220 219 219 219 218 216 217 217 216 214 212 210 207 204 202 201 202 202 203 205 205 206 210 212 211 213 215 216 216 215 215 218 220 220 220 226 236 234 226 224 229 234 238 248 259 266 269 269 267 265 259 246 238 242 252 273
209 207 207 210 211 211 210 211 213 215 217 218 218 217 216 216 215 214 215 216 215 216 218 218 218 218 218 219 221 221 222 222 221 219 218 217 218 217 216 216 215 213 210 208 205 202 203 204 205 206 208 209 210 211 212 212 212 213 212 213 214 213 214 216 219 228 231 218 213 224 236 244 254 258 263 272 269 259 254 249 243 247 258 272 290
209 208 208 209 211 212 212 212 214 216 219 219 218 217 217 217 216 215 216 217 217 218 219 219 220 220 220 220 220 222 224 224 223 221 219 218 218 217 217 217 217 217 216 214 212 208 206 205 206 207 209 209 208 210 210 210 210 208 204 205 210 211 212 214 217 227 232 217 208 215 230 242 248 248 257 271 269 257 252 250 254 266 272 278 291
209 210 210 210 212 213 215 216 216 218 220 221 219 218 218 217 216 216 217 218 219 220 221 221 221 222 222 221 221 222 222 222 223 221 218 217 216 215 215 215 216 217 216 215 215 213 211 209 209 211 211 210 210 211 211 211 210 205 200 202 206 208 211 216 222 229 226 213 208 212 228 238 236 241 255 264 260 256 259 260 259 263 273 285 290
210 211 211 211 213 214 216 218 219 220 222 223 222 221 220 218 217 217 218 220 222 223 223 223 223 224 224 224 223 223 222 222 223 221 217 215 214 213 213 215 216 217 216 216 215 214 213 212 212 213 213 212 213 212 210 210 212 208 206 208 209 208 212 216 217 215 212 212 213 213 223 231 229 234 248 251 250 259 266 264 258 264 279 284 281
212 212 213 214 215 216 217 218 222 225 226 225 225 224 222 220 218 218 219 220 223 225 226 225 224 225 225 225 225 225 224 223 224 222 218 214 212 212 212 214 215 216 216 217 217 216 214 214 214 214 214 214 214 213 210 209 211 209 204 203 203 201 200 199 197 201 208 219 223 217 218 226 225 227 239 245 247 256 262 263 266 272 273 270 271
212 213 214 217 218 218 219 220 223 227 229 228 227 227 225 221 218 218 218 219 223 227 229 227 226 226 226 226 225 226 226 225 224 224 219 213 210 211 212 213 214 216 217 218 218 218 216 215 215 214 213 213 211 212 211 209 210 206 196 191 191 191 188 184 188 203 216 224 225 217 214 220 220 220 232 242 246 252 258 261 262 262 259 262 278
214 215 216 219 220 221 222 222 223 227 230 230 230 231 229 224 219 218 218 219 222 228 230 230 229 229 229 228 227 226 227 225 224 224 220 213 210 211 212 212 211 214 217 216 215 217 216 215 216 215 214 213 211 213 213 211 210 205 197 194 193 191 189 187 192 207 219 223 219 211 206 209 211 212 223 234 243 254 259 261 260 258 264 277 282
216 219 219 220 221 221 223 224 225 227 229 230 231 232 231 227 222 220 218 218 222 227 230 230 232 233 233 233 230 229 228 226 223 224 222 215 212 212 213 211 211 215 216 212 212 214 213 211 213 214 215 215 214 215 215 213 210 207 202 200 196 193 192 193 197 204 208 208 207 203 200 205 208 209 217 227 239 252 249 244 252 267 272 273 272